Location: Izdebno
(52.6670°N, 16.2170°E)
Time: 09:58:06
(UTC+01:00)

Tiros 1 - All Passes

Search period start: 26 February 2024 00:00
Search period end: 07 March 2024 00:00
Orbit: 625 x 658 km, 48.4° (Epoch: 25 February)

Date Brightness Start Highest point End Pass type
(mag) Time Alt. Az. Time Alt. Az. Time Alt. Az.
26 Feb - 00:52:41 10° W 00:57:10 41° SSW 01:01:38 10° SE night (unlit)
26 Feb - 02:35:15 10° WSW 02:38:28 18° SW 02:41:39 10° S night (unlit)
26 Feb - 20:13:08 10° SSW 20:16:34 20° SE 20:20:01 10° E visible
26 Feb - 21:53:24 10° SW 21:57:55 43° SSE 22:02:26 10° E night (unlit)
26 Feb - 23:34:59 10° W 23:39:38 50° S 23:44:14 10° ESE night (unlit)
27 Feb - 01:17:02 10° W 01:21:11 30° SSW 01:25:19 10° SE night (unlit)
27 Feb - 18:59:06 10° SE 18:59:28 10° SE 18:59:50 10° SE visible
27 Feb - 20:36:19 10° SW 20:40:28 30° SSE 20:44:38 10° E visible
27 Feb - 22:17:24 10° WSW 22:22:02 50° S 22:26:40 10° E night (unlit)
27 Feb - 23:59:13 10° W 00:03:45 43° SSW 00:08:14 10° SE night (unlit)
28 Feb - 01:41:39 10° W 01:45:05 20° SW 01:48:30 10° SSE night (unlit)
28 Feb - 19:19:57 10° S 19:23:11 18° SE 19:26:25 10° ESE visible
28 Feb - 21:00:00 10° SW 21:04:29 41° SSE 21:08:59 10° E visible
28 Feb - 22:41:32 10° W 22:46:11 51° S 22:50:49 10° ESE night (unlit)
29 Feb - 00:23:32 10° W 00:27:46 32° SSW 00:31:59 10° SE night (unlit)
29 Feb - 02:07:20 10° WSW 02:08:49 11° SW 02:10:18 10° SSW night (unlit)
29 Feb - 19:42:59 10° SSW 19:47:03 28° SSE 19:51:07 10° E visible
29 Feb - 21:23:58 10° WSW 21:28:35 50° S 21:33:12 10° E visible
29 Feb - 23:05:44 10° W 23:10:18 45° SSW 23:14:50 10° ESE night (unlit)
01 Mar - 00:48:04 10° W 00:51:41 21° SSW 00:55:16 10° SSE night (unlit)
01 Mar - 18:26:48 10° S 18:29:48 17° SE 18:32:47 10° ESE visible
01 Mar - 20:06:36 10° SW 20:11:02 39° SSE 20:15:29 10° E visible
01 Mar - 21:48:04 10° WSW 21:52:43 52° S 21:57:21 10° ESE visible
01 Mar - 23:30:01 10° W 23:34:21 34° SSW 23:38:38 10° SE night (unlit)
02 Mar - 01:13:21 10° WSW 01:15:27 13° SW 01:17:31 10° SSW night (unlit)
02 Mar - 18:49:40 10° SSW 18:53:37 26° SSE 18:57:35 10° E visible
02 Mar - 20:30:31 10° WSW 20:35:06 48° S 20:39:44 10° E visible
02 Mar - 22:12:15 10° W 22:16:50 46° SSW 22:21:24 10° ESE visible
02 Mar - 23:54:30 10° W 23:58:16 23° SSW 00:02:02 10° SSE night (unlit)
03 Mar - 17:33:43 10° S 17:36:23 15° SE 17:39:05 10° ESE daylight
03 Mar - 19:13:11 10° SW 19:17:35 37° SSE 19:21:59 10° E visible
03 Mar - 20:54:35 10° WSW 20:59:14 52° S 21:03:53 10° ESE visible
03 Mar - 22:36:31 10° W 22:40:53 36° SSW 22:45:15 10° SE visible
04 Mar - 00:19:32 10° WSW 00:22:03 14° SW 00:24:33 10° S night (unlit)
04 Mar - 17:56:22 10° SSW 18:00:11 24° SSE 18:04:02 10° E daylight
04 Mar - 19:37:04 10° WSW 19:41:38 47° S 19:46:14 10° E visible
04 Mar - 21:18:46 10° W 21:23:21 48° S 21:27:57 10° ESE visible
04 Mar - 23:00:56 10° W 23:04:50 25° SSW 23:08:43 10° SSE night (unlit)
05 Mar - 16:40:41 10° S 16:42:59 13° SE 16:45:17 10° ESE daylight
05 Mar - 18:19:48 10° SW 18:24:06 35° SSE 18:28:28 10° E visible
05 Mar - 20:01:07 10° WSW 20:05:45 52° S 20:10:24 10° ESE visible
05 Mar - 21:42:59 10° W 21:47:25 38° SSW 21:51:50 10° SE visible
05 Mar - 23:25:48 10° WSW 23:28:38 16° SW 23:31:29 10° S night (unlit)
06 Mar - 17:03:05 10° SSW 17:06:45 22° SSE 17:10:26 10° E daylight
06 Mar - 18:43:37 10° WSW 18:48:09 45° SSE 18:52:43 10° E visible
06 Mar - 20:25:16 10° W 20:29:52 49° S 20:34:29 10° ESE visible
06 Mar - 22:07:22 10° W 22:11:23 27° SSW 22:15:23 10° SSE visible
